Location: San Gennaro Vesuviano
(40.8833°N, 14.5333°E)
Time: 11:11:13
(UTC+00:00)

Meteor 2-16 Rocket - Pass Details

Date: 22 April 2021
Orbit: 942 x 955 km, 82.6° (Epoch: 10 May)

Event Time Altitude Azimuth Distance (km) Brightness Sun altitude
Rises 19:45:15 0° 354° (N) 3,642 8.2 -20.2°
Reaches altitude 10° 19:47:47 10° 357° (N) 2,693 7.4 -20.6°
Maximum altitude 19:53:55 69° 81° (E) 1,017 4.4 -21.5°
Enters shadow 19:56:11 40° 151° (SSE) 1,371 4.8 -21.8°
